DW5963 Weather Reports


time (UTC)temp
F
wind
direction
speed
knots
gust
knots
rain 1hr
in
rain 24hr
in
rain mn
in
humidity
%
barometer
mb
20260903074605 68 360 9.6 0.0 0.00 0.00 0.00 67 1004.6
20260903073552 71 360 9.6 0.0 0.00 0.00 0.00 61 1004.8
20260903073050 72 360 7.0 0.0 0.00 0.00 0.00 60 1004.8
20260903072550 74 360 3.5 0.0 0.00 0.00 0.00 65 1004.8
20260903072050 74 360 2.6 0.0 0.00 0.00 0.00 65 1004.7
20260903071553 74 360 4.3 0.0 0.00 0.00 0.00 66 1004.8
20260903071049 74 360 7.8 0.0 0.00 0.00 0.00 66 1004.9
20260903070553 73 360 11.3 0.0 0.00 0.00 0.00 66 1004.9
20260903070050 72 360 8.7 0.0 0.00 0.00 0.00 68 1004.8
20260903065551 72 360 7.0 0.0 0.00 0.00 0.00 67 1004.5
20260903065049 72 360 7.8 0.0 0.00 0.00 0.00 67 1002.8
20260903064551 72 360 8.7 0.0 0.00 0.00 0.00 67 1002.9
20260903063550 72 360 9.6 0.0 0.00 0.00 0.00 68 1002.5
20260903063049 72 360 8.7 0.0 0.00 0.00 0.00 68 1002.3
20260903062553 72 360 8.7 0.0 0.00 0.00 0.00 68 1002.2
20260903062047 72 360 7.8 0.0 0.00 0.00 0.00 68 1002.1
20260903061553 72 360 8.7 0.0 0.00 0.00 0.00 67 1002.2
20260903061048 72 360 7.8 0.0 0.00 0.00 0.00 66 1002.3
20260903060548 73 360 7.8 0.0 0.00 0.00 0.00 66 1002.4
20260903060051 73 360 8.7 0.0 0.00 0.00 0.00 65 1002.7
20260903055547 73 360 8.7 0.0 0.00 0.00 0.00 65 1002.7
20260903055047 73 360 9.6 0.0 0.00 0.00 0.00 65 1002.8
20260903054550 73 360 8.7 0.0 0.00 0.00 0.00 65 1002.8
20260903053550 72 360 8.7 0.0 0.00 0.00 0.00 67 1002.9
20260903053104 72 360 9.6 0.0 0.00 0.00 0.00 67 1002.8
20260903052548 72 360 8.7 0.0 0.00 0.00 0.00 68 1002.6
20260903052050 72 360 7.8 0.0 0.00 0.00 0.00 68 1002.3
20260903051552 72 360 8.7 0.0 0.00 0.00 0.00 68 1002.2
20260903051046 72 360 7.8 0.0 0.00 0.00 0.00 68 1002.1
20260903050548 72 360 7.8 0.0 0.00 0.00 0.00 69 1002.3
20260903050045 72 360 7.8 0.0 0.00 0.00 0.00 69 1002.2
20260903045545 72 360 7.0 0.0 0.00 0.00 0.00 69 1002.4
20260903045043 72 360 7.0 0.0 0.00 0.00 0.00 68 1002.7
20260903044552 72 360 7.0 0.0 0.00 0.00 0.00 68 1002.9
20260903043545 73 360 7.0 0.0 0.00 0.00 0.00 68 1003.2
20260903043043 73 360 7.0 0.0 0.00 0.00 0.00 68 1003.3
20260903042544 73 360 7.0 0.0 0.00 0.00 0.00 68 1003.3
20260903042044 73 360 6.1 0.0 0.00 0.00 0.00 68 1003.5
20260903041543 73 360 6.1 0.0 0.00 0.00 0.00 68 1003.6
20260903041042 73 360 6.1 0.0 0.00 0.00 0.00 68 1003.7
20260903040543 73 360 6.1 0.0 0.00 0.00 0.00 67 1003.7
20260903040043 73 360 6.1 0.0 0.00 0.00 0.00 67 1003.7
20260903035542 73 360 5.2 0.0 0.00 0.00 0.00 67 1003.8
20260903035042 74 360 5.2 0.0 0.00 0.00 0.00 67 1003.9
20260903034542 74 360 6.1 0.0 0.00 0.00 0.00 66 1003.7
20260903033543 74 360 7.0 0.0 0.00 0.00 0.00 66 1003.8
20260903033041 74 360 7.0 0.0 0.00 0.00 0.00 65 1003.7
20260903032541 75 360 7.8 0.0 0.00 0.00 0.00 65 1003.7
20260903032040 75 360 7.8 0.0 0.00 0.00 0.00 65 1003.7
20260903031540 75 360 7.8 0.0 0.00 0.00 0.00 64 1003.7
20260903031040 75 360 7.8 0.0 0.00 0.00 0.00 64 1003.7
20260903030540 75 360 7.8 0.0 0.00 0.00 0.00 64 1003.6
20260903030044 75 360 7.0 0.0 0.00 0.00 0.00 64 1003.7
20260903025540 75 360 7.0 0.0 0.00 0.00 0.00 64 1003.8
20260903025040 75 360 7.0 0.0 0.00 0.00 0.00 64 1003.9
20260903024545 75 360 7.8 0.0 0.00 0.00 0.00 64 1003.7
20260903023542 76 120 8.7 0.0 0.00 0.00 0.00 62 1003.5
20260903023041 76 121 8.7 0.0 0.00 0.00 0.00 62 1003.5
20260903022540 77 115 8.7 0.0 0.00 0.00 0.00 62 1003.6
20260903022040 77 123 9.6 0.0 0.00 0.00 0.00 61 1003.8
20260903021546 77 114 9.6 0.0 0.00 0.00 0.00 61 1003.9
20260903021039 77 126 10.4 0.0 0.00 0.00 0.00 60 1003.9
20260903020540 78 116 10.4 0.0 0.00 0.00 0.00 60 1003.8
20260903020039 78 126 10.4 0.0 0.00 0.00 0.00 60 1003.6
20260903015540 78 121 11.3 0.0 0.00 0.00 0.00 60 1003.5
20260903015038 78 123 10.4 0.0 0.00 0.00 0.00 59 1003.5
20260903014543 78 128 10.4 0.0 0.00 0.00 0.00 59 1003.5
20260903013540 79 360 9.6 0.0 0.00 0.00 0.00 58 1003.6
20260903013040 79 360 9.6 0.0 0.00 0.00 0.00 58 1003.6
20260903012539 79 360 9.6 0.0 0.00 0.00 0.00 57 1003.6
20260903012039 80 360 10.4 0.0 0.00 0.00 0.00 57 1003.4
20260903011542 80 360 10.4 0.0 0.00 0.00 0.00 56 1003.4
20260903011039 81 360 10.4 0.0 0.00 0.00 0.00 55 1003.4
20260903010539 81 360 10.4 0.0 0.00 0.00 0.00 54 1003.3
20260903010039 82 360 10.4 0.0 0.00 0.00 0.00 54 1003.3
20260903005541 82 360 10.4 0.0 0.00 0.00 0.00 53 1003.3
20260903005038 82 360 10.4 0.0 0.00 0.00 0.00 52 1003.3
20260903004542 83 360 10.4 0.0 0.00 0.00 0.00 52 1003.3
20260903003537 83 360 11.3 0.0 0.00 0.00 0.00 51 1003.3
20260903003036 84 360 10.4 0.0 0.00 0.00 0.00 50 1003.2
20260903002537 84 360 9.6 0.0 0.00 0.00 0.00 50 1003.2
20260903002036 84 360 9.6 0.0 0.00 0.00 0.00 50 1003.3
20260903001536 84 360 9.6 0.0 0.00 0.00 0.00 50 1003.2
20260903001035 84 360 10.4 0.0 0.00 0.00 0.00 48 1003.3
20260903000535 85 360 12.2 0.0 0.00 0.00 0.00 47 1003.3
20260903000035 85 360 12.2 0.0 0.00 0.00 0.00 47 1003.3
20260902235535 85 360 11.3 0.0 0.00 0.00 0.00 47 1003.2
20260902235033 86 360 11.3 0.0 0.00 0.00 0.00 48 1003.4
20260902234533 86 360 11.3 0.0 0.00 0.00 0.00 48 1003.4
20260902233533 86 360 11.3 0.0 0.00 0.00 0.00 46 1003.6
20260902233037 87 360 11.3 0.0 0.00 0.00 0.00 45 1003.6
20260902232533 87 360 10.4 0.0 0.00 0.00 0.00 46 1003.7
20260902232032 87 360 10.4 0.0 0.00 0.00 0.00 46 1003.6
20260902231536 87 360 10.4 0.0 0.00 0.00 0.00 46 1003.7
20260902231034 87 360 10.4 0.0 0.00 0.00 0.00 46 1003.8
20260902230531 86 360 10.4 0.0 0.00 0.00 0.00 47 1003.8
20260902230031 85 360 10.4 0.0 0.00 0.00 0.00 46 1003.8
20260902225530 87 360 11.3 0.0 0.00 0.00 0.00 44 1003.8
20260902225031 87 360 12.2 0.0 0.00 0.00 0.00 44 1003.7
20260902224530 86 360 12.2 0.0 0.00 0.00 0.00 46 1003.7
20260902223530 87 360 11.3 0.0 0.00 0.00 0.00 43 1003.7
20260902223030 87 360 11.3 0.0 0.00 0.00 0.00 45 1003.7
20260902222530 86 360 11.3 0.0 0.00 0.00 0.00 46 1003.8
20260902222029 86 360 11.3 0.0 0.00 0.00 0.00 46 1003.9
20260902221528 86 360 11.3 0.0 0.00 0.00 0.00 46 1003.8
20260902221028 86 360 11.3 0.0 0.00 0.00 0.00 45 1004.0
20260902220527 87 360 11.3 0.0 0.00 0.00 0.00 45 1003.9
20260902220030 86 360 10.4 0.0 0.00 0.00 0.00 46 1004.0
20260902215526 86 360 10.4 0.0 0.00 0.00 0.00 45 1004.0
20260902215025 86 360 11.3 0.0 0.00 0.00 0.00 46 1004.1
20260902214524 86 360 10.4 0.0 0.00 0.00 0.00 46 1004.3
20260902213523 85 360 9.6 0.0 0.00 0.00 0.00 47 1004.3
20260902213023 85 360 10.4 0.0 0.00 0.00 0.00 47 1004.3
20260902212524 86 360 12.2 0.0 0.00 0.00 0.00 45 1004.4
20260902212024 87 360 12.2 0.0 0.00 0.00 0.00 44 1004.5
20260902211522 88 360 11.3 0.0 0.00 0.00 0.00 45 1004.5
20260902211022 88 360 12.2 0.0 0.00 0.00 0.00 45 1004.5
20260902210522 87 360 12.2 0.0 0.00 0.00 0.00 44 1004.6
20260902210021 88 360 11.3 0.0 0.00 0.00 0.00 45 1004.6
20260902205520 88 360 10.4 0.0 0.00 0.00 0.00 44 1004.8
20260902205021 87 360 11.3 0.0 0.00 0.00 0.00 44 1004.8
20260902204535 87 360 12.2 0.0 0.00 0.00 0.00 45 1005.1
20260902203517 87 360 13.0 0.0 0.00 0.00 0.00 45 1005.1
20260902203018 87 360 13.0 0.0 0.00 0.00 0.00 44 1005.2
20260902202517 87 360 13.0 0.0 0.00 0.00 0.00 45 1005.2
20260902202016 87 360 12.2 0.0 0.00 0.00 0.00 44 1005.2
20260902201526 87 360 12.2 0.0 0.00 0.00 0.00 45 1005.3
20260902201014 87 360 11.3 0.0 0.00 0.00 0.00 45 1005.4
20260902200515 87 360 12.2 0.0 0.00 0.00 0.00 44 1005.5
20260902200013 86 360 13.0 0.0 0.00 0.00 0.00 45 1005.6
20260902195513 86 360 12.2 0.0 0.00 0.00 0.00 45 1005.7
20260902195011 86 360 12.2 0.0 0.00 0.00 0.00 44 1005.7
20260902194511 86 360 11.3 0.0 0.00 0.00 0.00 45 1005.7
20260902193511 86 360 12.2 0.0 0.00 0.00 0.00 43 1005.6
20260902193011 86 360 13.0 0.0 0.00 0.00 0.00 44 1005.7
20260902192511 86 360 12.2 0.0 0.00 0.00 0.00 44 1005.8
20260902192010 86 360 11.3 0.0 0.00 0.00 0.00 44 1005.9
20260902191515 86 360 11.3 0.0 0.00 0.00 0.00 45 1005.9
20260902191011 85 360 11.3 0.0 0.00 0.00 0.00 46 1006.0
20260902190507 85 360 11.3 0.0 0.00 0.00 0.00 46 1006.3
20260902190005 85 360 12.2 0.0 0.00 0.00 0.00 46 1006.3
20260902185505 85 360 12.2 0.0 0.00 0.00 0.00 46 1006.4
20260902185003 85 360 12.2 0.0 0.00 0.00 0.00 47 1006.4
20260902184504 84 360 12.2 0.0 0.00 0.00 0.00 47 1006.5
20260902183503 85 360 12.2 0.0 0.00 0.00 0.00 47 1006.7
20260902183002 84 360 12.2 0.0 0.00 0.00 0.00 48 1006.7
20260902182503 84 360 12.2 0.0 0.00 0.00 0.00 48 1006.9
20260902182100 84 360 12.2 0.0 0.00 0.00 0.00 49 1006.9
20260902181613 83 360 12.2 0.0 0.00 0.00 0.00 49 1006.9
20260902181059 83 124 13.0 0.0 0.00 0.00 0.00 49 1007.1
20260902180557 83 109 13.0 0.0 0.00 0.00 0.00 50 1007.2
20260902180100 83 360 13.9 0.0 0.00 0.00 0.00 50 1007.2
20260902175556 82 360 13.9 0.0 0.00 0.00 0.00 52 1007.2
20260902175054 82 119 13.0 0.0 0.00 0.00 0.00 52 1007.3
20260902174554 81 360 12.2 0.0 0.00 0.00 0.00 53 1007.4
20260902174153 81 124 12.2 0.0 0.00 0.00 0.00 53 1007.6
20260902173552 81 360 12.2 0.0 0.00 0.00 0.00 53 1007.6
20260902173051 81 360 12.2 0.0 0.00 0.00 0.00 54 1007.7
20260902172553 80 360 12.2 0.0 0.00 0.00 0.00 54 1007.8
20260902172049 80 360 11.3 0.0 0.00 0.00 0.00 54 1007.8
20260902171556 80 150 10.4 0.0 0.00 0.00 0.00 55 1008.0
20260902171047 79 360 10.4 0.0 0.00 0.00 0.00 56 1008.0
20260902170545 79 105 10.4 0.0 0.00 0.00 0.00 55 1008.2
20260902170045 79 360 10.4 0.0 0.00 0.00 0.00 55 1008.2
20260902165545 79 360 10.4 0.0 0.00 0.00 0.00 55 1008.3
20260902165043 78 360 10.4 0.0 0.00 0.00 0.00 56 1008.3
20260902164551 78 360 10.4 0.0 0.00 0.00 0.00 56 1008.3
20260902164142 77 360 11.3 0.0 0.00 0.00 0.00 56 1008.4
20260902163542 77 360 11.3 0.0 0.00 0.00 0.00 56 1008.4
20260902163046 76 360 11.3 0.0 0.00 0.00 0.00 56 1008.5
20260902162540 76 360 10.4 0.0 0.00 0.00 0.00 56 1008.5
20260902162039 76 360 10.4 0.0 0.00 0.00 0.00 55 1008.5
20260902161538 75 360 10.4 0.0 0.00 0.00 0.00 55 1008.6
20260902161040 75 360 9.6 0.0 0.00 0.00 0.00 55 1008.6
20260902160538 75 360 9.6 0.0 0.00 0.00 0.00 56 1008.5
20260902160036 75 360 10.4 0.0 0.00 0.00 0.00 57 1008.7
20260902155534 74 360 10.4 0.0 0.00 0.00 0.00 57 1008.7
20260902155033 74 360 10.4 0.0 0.00 0.00 0.00 58 1008.8
20260902154538 74 360 9.6 0.0 0.00 0.00 0.00 58 1008.8
20260902154132 73 174 9.6 0.0 0.00 0.00 0.00 59 1008.8
20260902153532 73 360 9.6 0.0 0.00 0.00 0.00 59 1008.9
20260902153037 73 360 9.6 0.0 0.00 0.00 0.00 59 1008.9
20260902152529 72 360 9.6 0.0 0.00 0.00 0.00 60 1008.8
20260902152028 72 161 9.6 0.0 0.00 0.00 0.00 60 1009.0
20260902151527 71 150 10.4 0.0 0.00 0.00 0.00 60 1009.0
20260902151025 71 360 10.4 0.0 0.00 0.00 0.00 61 1009.2
20260902150528 70 360 9.6 0.0 0.00 0.00 0.00 61 1009.1
20260902150026 70 360 8.7 0.0 0.00 0.00 0.00 61 1009.3
20260902145522 69 360 8.7 0.0 0.00 0.00 0.00 63 1009.2
20260902145021 68 360 9.6 0.0 0.00 0.00 0.00 64 1009.3
20260902144519 68 360 9.6 0.0 0.00 0.00 0.00 64 1009.3
20260902144119 66 360 9.6 0.0 0.00 0.00 0.00 64 1009.3
20260902143518 66 360 9.6 0.0 0.00 0.00 0.00 65 1009.3
20260902143020 66 360 8.7 0.0 0.00 0.00 0.00 65 1009.4
20260902142516 65 360 7.0 0.0 0.00 0.00 0.00 67 1009.5
20260902142015 64 360 7.0 0.0 0.00 0.00 0.00 68 1009.5
20260902141522 64 360 7.0 0.0 0.00 0.00 0.00 69 1009.7
20260902141012 63 360 6.1 0.0 0.00 0.00 0.00 70 1009.6
20260902140511 63 360 6.1 0.0 0.00 0.00 0.00 70 1009.7
20260902140011 62 360 5.2 0.0 0.00 0.00 0.00 72 1009.7
20260902135507 62 360 5.2 0.0 0.00 0.00 0.00 73 1009.7
20260902135007 62 360 5.2 0.0 0.00 0.00 0.00 73 1009.8
20260902134506 61 360 4.3 0.0 0.00 0.00 0.00 74 1009.8
20260902134105 60 360 3.5 0.0 0.00 0.00 0.00 76 1009.7
20260902133505 60 360 3.5 0.0 0.00 0.00 0.00 76 1009.7
20260902133006 59 360 3.5 0.0 0.00 0.00 0.00 78 1009.7
20260902132509 59 360 2.6 0.0 0.00 0.00 0.00 80 1009.7
20260902132105 58 360 1.7 0.0 0.00 0.00 0.00 81 1009.8
20260902131505 57 360 1.7 0.0 0.00 0.00 0.00 81 1009.7
20260902131005 57 360 2.6 0.0 0.00 0.00 0.00 81 1009.8
20260902130505 56 360 1.7 0.0 0.00 0.00 0.00 82 1009.7
20260902130004 56 360 0.9 0.0 0.00 0.00 0.00 82 1009.8
20260902125506 55 360 1.7 0.0 0.00 0.00 0.00 82 1009.7
20260902125004 55 360 1.7 0.0 0.00 0.00 0.00 81 1009.6
20260902124514 56 360 1.7 0.0 0.00 0.00 0.00 81 1009.6
20260902124103 56 360 0.9 0.0 0.00 0.00 0.00 81 1009.8
20260902123503 56 360 0.9 0.0 0.00 0.00 0.00 80 1009.7
20260902123003 56 360 0.9 0.0 0.00 0.00 0.00 81 1009.7
20260902122503 56 360 1.7 0.0 0.00 0.00 0.00 81 1009.7
20260902122004 56 360 2.6 0.0 0.00 0.00 0.00 82 1009.6
20260902121502 56 360 2.6 0.0 0.00 0.00 0.00 83 1009.6
20260902121002 55 360 1.7 0.0 0.00 0.00 0.00 83 1009.6
20260902120502 55 360 0.0 0.0 0.00 0.00 0.00 84 1009.6
20260902120005 54 360 0.0 0.0 0.00 0.00 0.00 83 1009.4
20260902115501 54 360 0.9 0.0 0.00 0.00 0.00 83 1009.5
20260902115001 54 360 1.7 0.0 0.00 0.00 0.00 84 1009.6
20260902114600 54 360 1.7 0.0 0.00 0.00 0.00 83 1009.6
20260902114100 53 360 0.9 0.0 0.00 0.00 0.00 83 1009.7
20260902113559 53 360 0.9 0.0 0.00 0.00 0.00 83 1009.7
20260902113059 53 360 0.0 0.0 0.00 0.00 0.00 81 1009.8
20260902112558 53 360 0.0 0.0 0.00 0.00 0.00 81 1009.9
20260902112058 53 360 0.0 0.0 0.00 0.00 0.00 81 1009.8
20260902111559 53 360 0.0 0.0 0.00 0.00 0.00 81 1009.9
20260902111056 54 360 0.0 0.0 0.00 0.00 0.00 80 1010.0
20260902110555 54 360 0.0 0.0 0.00 0.00 0.00 79 1010.0
20260902110055 54 360 0.0 0.0 0.00 0.00 0.00 79 1010.0
20260902105554 55 360 0.0 0.0 0.00 0.00 0.00 79 1009.9
20260902105053 55 360 0.0 0.0 0.00 0.00 0.00 79 1010.0
20260902104553 55 360 0.0 0.0 0.00 0.00 0.00 79 1010.0
20260902104054 55 360 0.0 0.0 0.00 0.00 0.00 79 1010.1
20260902103552 55 360 0.0 0.0 0.00 0.00 0.00 79 1010.1
20260902103059 55 360 0.0 0.0 0.00 0.00 0.00 78 1010.0
20260902102551 55 360 0.0 0.0 0.00 0.00 0.00 77 1010.1
20260902102050 55 360 0.0 0.0 0.00 0.00 0.00 76 1010.1
20260902101555 56 360 0.9 0.0 0.00 0.00 0.00 76 1010.1
20260902101048 56 360 0.9 0.0 0.00 0.00 0.00 75 1010.1
20260902100547 57 360 0.9 0.0 0.00 0.00 0.00 73 1010.1
20260902100047 58 360 1.7 0.0 0.00 0.00 0.00 73 1010.0
20260902095546 58 360 2.6 0.0 0.00 0.00 0.00 74 1010.0
20260902095046 58 360 1.7 0.0 0.00 0.00 0.00 74 1010.2
20260902094546 58 360 2.6 0.0 0.00 0.00 0.00 74 1010.2
20260902094046 58 360 2.6 0.0 0.00 0.00 0.00 76 1010.2
20260902093545 58 360 2.6 0.0 0.00 0.00 0.00 76 1010.2
20260902093102 57 360 0.9 0.0 0.00 0.00 0.00 76 1010.1
20260902092545 57 360 0.0 0.0 0.00 0.00 0.00 73 1010.1
20260902092048 57 360 0.0 0.0 0.00 0.00 0.00 72 1010.3
20260902091551 58 360 0.0 0.0 0.00 0.00 0.00 72 1010.1
20260902091041 58 360 0.0 0.0 0.00 0.00 0.00 71 1010.1
20260902090540 59 360 0.0 0.0 0.00 0.00 0.00 71 1010.1
20260902090043 59 360 0.0 0.0 0.00 0.00 0.00 71 1010.1
20260902085539 59 360 0.0 0.0 0.00 0.00 0.00 71 1010.1
20260902085039 59 360 0.0 0.0 0.00 0.00 0.00 71 1010.2
20260902084548 59 360 0.0 0.0 0.00 0.00 0.00 70 1010.2
20260902084038 60 360 0.9 0.0 0.00 0.00 0.00 70 1010.3
20260902083538 60 360 0.9 0.0 0.00 0.00 0.00 70 1010.3
20260902083048 60 360 0.9 0.0 0.00 0.00 0.00 71 1010.3
20260902082537 59 360 0.9 0.0 0.00 0.00 0.00 72 1010.4
20260902082037 59 360 0.9 0.0 0.00 0.00 0.00 71 1010.4
20260902081540 59 360 0.9 0.0 0.00 0.00 0.00 71 1010.4
20260902081036 59 360 0.9 0.0 0.00 0.00 0.00 70 1010.4
20260902080535 60 360 1.7 0.0 0.00 0.00 0.00 70 1010.4
20260902080035 60 360 0.9 0.0 0.00 0.00 0.00 70 1010.5
20260902075533 60 360 0.0 0.0 0.00 0.00 0.00 69 1010.5
20260902075034 60 360 0.9 0.0 0.00 0.00 0.00 69 1010.5